Regional Weather Roundup
Issued by NWS

Home | Current Version | Previous Version | Text Only | Print | Product List | Glossary On
Versions: 1 2 3 4 5 6 7 8 9 10 11 12 13 14 15 16 17 18 19 20 21 22 23 24 25 26 27 28 29 30 31 32 33 34 35 36 37 38 39 40 41 42 43 44 45 46 47 48 49 50
000
ASHW40 PHFO 220632
RWRHI

WEATHER ROUNDUP FOR HAWAII
NATIONAL WEATHER SERVICE HONOLULU HI
800 PM HST SUN JAN 21 2018

THIS IS AN AUTOMATED REPORT THAT HAS NOT BEEN QUALITY CONTROLLED.

NOTE..."FAIR" INDICATES FEW OR NO CLOUDS BELOW 12,000 FEET WITH NO
SIGNIFICANT WEATHER AND/OR OBSTRUCTIONS TO VISIBILITY.

* - THESE SITES REPORT LIMITED FIELDS
# - BUOY DATA PROVIDED BY PACIFIC ISLANDS OCEAN OBSERVING SYSTEM.

HIZ001>004-220700-
KAUAI-NIIHAU-

CITY           SKY/WX    TMP DP  RH WIND       PRES   REMARKS
LIHUE APT      MOCLDY    74  68  81 NE14      30.06R
PORT ALLEN*      N/A     73 N/A N/A E13         N/A
POIPU*           N/A     73 N/A N/A NE7G13      N/A
PRINCEVILLE*     N/A     70 N/A N/A S2          N/A
KOKOLE POINT*  NOT AVBL
MOLOAA DAIRY*    N/A     72  66  83 E2G8        N/A
WAIMEA HTS*    NOT AVBL
PUU OPAE*      NOT AVBL
PUU LUA*       NOT AVBL
MAKAHA RIDGE*    N/A     66  61  82 CALM        N/A
$$

HIZ005>011-220700-
OAHU-

CITY           SKY/WX    TMP DP  RH WIND       PRES   REMARKS
HONOLULU       MOCLDY    76  63  64 E5        30.02R
KALAELOA       PTCLDY    73  64  73 NE5       30.03R
KANEOHE MCB    MOCLDY    75  68  78 E9        30.02R
WHEELER FIELD  FAIR      70  64  80 CALM      30.06R
BELLOWS*         N/A    N/A N/A N/A NE16        N/A
KAHUKU*          N/A    N/A N/A N/A E9G18       N/A
WHEELER*       NOT AVBL
WAIANAE HARBOR NOT AVBL
DILLINGHAM*    NOT AVBL
KAHUKU TRN*      N/A     75  72  88 W7G18       N/A
KAWAILOA*        N/A     68  63  83 E12G21      N/A
KII*             N/A     73  66  78 E16         N/A
MAKUA RANGE*   NOT AVBL
OAHU FOREST NW NOT AVBL
SCHOFIELD BRK*   N/A     66  63  88 MISG        N/A
SCHOFIELD S*   NOT AVBL
WAIANAE VLY*   NOT AVBL
KUAOKALA*      NOT AVBL
HONOULIUULI*   NOT AVBL
MOKUOLOE IS*   NOT AVBL
PALEHUA*       NOT AVBL
WAIAWA PHB*    NOT AVBL
$$

HIZ012>013-220700-
MOLOKAI-

CITY           SKY/WX    TMP DP  RH WIND       PRES   REMARKS
MOLOKAI AIRPT  PTCLDY    73  32  22 NE18G29   30.01R
KALAUPAPA      NOT AVBL
MAKAPULAPAI*     N/A     73  66  78 E17G23      N/A
MOLOKAI 1*     NOT AVBL
PUU ALII*        N/A     52  52  99 N2G9        N/A
$$

HIZ016-220700-
KAHOOLAWE-

CITY           SKY/WX    TMP DP  RH WIND       PRES   REMARKS
KAHOOLAWE*     NOT AVBL
HAKIOAWA*        N/A     68  66  92 MISG      30.44R
HONOKANAIA*    NOT AVBL
KANELOA*         N/A     72  66  83 E17G26    30.06R
KEALIALALO*    NOT AVBL
LUA MAKIKA*    NOT AVBL
$$

HIZ014>015-220700-
LANAI-

CITY           SKY/WX    TMP DP  RH WIND       PRES   REMARKS
LANAI CITY     MOCLDY    68  63  83 E12G17    30.07R
LANAI 1*       NOT AVBL
$$

HIZ017>028-220700-
MAUI-

CITY           SKY/WX    TMP DP  RH WIND       PRES   REMARKS
KAHULUI          N/A     72  66  81 NE10      30.03R
KAPALUA-W MAUI NOT AVBL
HANA AIRPORT   CLOUDY    70  32  24 E3        30.08S
HANA*            N/A     72 N/A N/A SE5G10      N/A
HALEAKALA SUMM   N/A     37  37 100 SE16        N/A  WCI  28
MAALAEA BAY*     N/A     73 N/A N/A N16G29      N/A
HALEAKALA*     NOT AVBL
KAUPO GAP*     NOT AVBL
KULA 1*          N/A     48  48 100 NE2         N/A
$$

HIZ023>026-220700-
BIG ISLAND OF HAWAII COAST AND LOWER SLOPES-

CITY           SKY/WX    TMP DP  RH WIND       PRES   REMARKS
KAILUA KONA    PTCLDY    76  65  68 SE5       29.97R
HILO           CLOUDY    74  69  85 E6        30.04S
HONOKAA*         N/A     66 N/A N/A VRB1        N/A
KAWAIHAE MWT*    N/A     77 N/A N/A NW5         N/A
KAWAIHAE*        N/A     77 N/A N/A W6        29.96S
SOUTH POINT*     N/A     68 N/A N/A N17G26      N/A
UPOLU AIRPORT* NOT AVBL
KAMUELA*       CLOUDY    63  61  94 NE14      30.10R
HAKALAU*         N/A     50  48  94 SW3G12      N/A
KALOKO-HONOKO*   N/A     75  68  78 CALM      29.97R
PALI 2*          N/A     63  59  88 S13G22      N/A
KEALAKOMO*       N/A     73  66  78 N14         N/A
KAUPULEHU*     NOT AVBL
KAPAPALA*        N/A     64  63  97 NW3         N/A
LOWER KAHUKU*    N/A     61  61 100 VRB3G14     N/A
PUHE CS*         N/A     75  64  69 W3G9        N/A
PUHO CS*         N/A     76  66  71 NW1         N/A
PTA KEAMUKU*     N/A     61  59  94 NE2G9       N/A
WAIKOLOA*      NOT AVBL
$$

HIZ027>028-220700-
BIG ISLAND OF HAWAII INTERIOR AND SUMMMITS-

CITY           SKY/WX    TMP DP  RH WIND       PRES   REMARKS
BRADSHAW FIELD CLOUDY    56  42  61 S16G25    30.27R
MK VISITOR CEN   N/A     43  36  75 E12         N/A
MAUNA KEA*       N/A     28  28 100 E1          N/A
MAUNA LOA*       N/A     37  34  87 MISG        N/A
MAUNA LOA 1*   NOT AVBL
PTA KIPUKA*      N/A     57  55  94 S2          N/A
PTA RANGE 17*    N/A     66  57  72 NW14G22     N/A
PTA WEST*        N/A     59  59 100 NW3         N/A
NENE CABIN*      N/A     48  46  93 NE6G14      N/A
AHUMOA*        NOT AVBL
PTA PORTABLE*  NOT AVBL
PUU MALI*        N/A     55  55 100 SE15G22     N/A
$$

HIC003-220700-
NORTHWEST ISLANDS-

CITY           SKY/WX    TMP DP  RH WIND       PRES   REMARKS
MIDWAY ISLAND  PTCLDY    73  70  88 SE12      30.03R
MIDWAY NOS*      N/A     73 N/A N/A MISG      30.01R
FRENCH FRIGATE NOT AVBL
$$

PHZ110>124-180-220700-
BUOY REPORTS

STATION/POSITION TIME  TEMP    WIND        PRES    WAVE   SWELL
                       AIR SEA DIR/SP/G            HT/PER HT/DIR
                 (UTC) (F)     (DEG/KT/KT) (MB)    (FT/S) (FT/D)
BUOY 51001       0610   75 76   60/ 16/ 19 1015.6
BUOY 51101       0550   72 74   50/ 17/ 19 1018.6R   9/19   8/300
BUOY 51100       NOT AVBL
BUOY 51002       0610   77 78   50/ 19/ 23 1014.0
BUOY 51003       0550   76 77   50/ 14/ 16 1015.2R   8/15   8/120
BUOY 51004       0610   76 77   60/ 17/ 25 1014.7
WAIMEA BAY#      0602      74                N/A     6/13   3/320
MOKAPU POINT#    0604      76                N/A     7/11   3/ 60
LANAI#           NOT AVBL
BARBERS PT 2#    NOT AVBL
PAUWELA#         0600      76                N/A    10/11   7/ 70
HILO#            0557      76                N/A    10/10   5/ 80
KANEOHE BAY#     NOT AVBL
KANEOHE BAY 2#   NOT AVBL
HANALEI#         0552      75                N/A     9/10   5/330
KAHULUI HARBOR   0600   73 75  310/  2/  4 1017.2
HONOLULU HARBOR  0600   75 76  130/  4/  6 1016.0
PEARL HARBOR#    0600      76                N/A     3/ 7   2/160
KILO NALU        NOT AVBL
HILO HARBOR      0600   73 76  100/  5/  8 1016.8
MOKUOLOE         0536   75 76   80/  8/ 12 1017.0R
NAWILIWILI       0600   74      40/  7/  9 1017.6
WHOTS BUOY       NOT AVBL
BUOY 51028       NOT AVBL
$$

......................KEY........................................
  SKY/WX - SKY CONDITIONS/PRESENT WEATHER
  TMP    - TEMPERATURE IN FAHRENHEIT
  DWPT   - DEWPOINT IN FAHRENHEIT
  RH     - RELATIVE HUMIDITY IN PERCENT
  WIND   - DIRECTION AND SPEED /MPH FOR ISLANDS...KTS FOR BUOYS/
  PRES   - MEAN SEA LEVEL PRESSURE IN INCHES OF HG
  VSB    - VISIBILITY IN MILES
  HX     - HEAT INDEX
  WCI    - WIND CHILL INDEX
  VRB    - VARIABLE WIND DIRECTION
  N/A    - NOT AVAILABLE




USA.gov is the U.S. government's official web portal to all federal, state and local government web resources and services.